Location: Dos Palmas
(32.4468°N, 116.8732°W)
Time: 02:14:00
(UTC+00:00)

USA 215 - Pass Details

Date: 20 June 2021
Orbit: 1100 x 1107 km, 123.0° (Epoch: 22 June)

Event Time Altitude Azimuth Distance (km) Brightness Sun altitude
Rises 04:26:20 0° 59° (ENE) 3,916 6.0 -16.1°
Reaches altitude 10° 04:29:29 10° 74° (ENE) 2,955 5.2 -16.6°
Enters shadow 04:32:56 21° 105° (ESE) 2,267 4.4 -17.1°
